Miscellaneous Local Product
Issued by NWS Hastings, NE

Home | Current Version | Previous Version | Graphics & Text | Print | Product List | Glossary On
Versions: 1 2 3 4 5 6 7 8 9 10 11 12 13 14 15 16 17 18 19 20 21 22 23 24 25 26 27 28 29 30 31 32 33 34 35 36 37 38 39 40 41 42 43 44 45 46 47 48 49 50
258
AXUS43 KGID 230302
MISGRI

GID CWA HOURLY WEATHER ROUNDUP
NATIONAL WEATHER SERVICE HASTINGS NE
1000 PM CDT FRI SEP 22 2017

NOTE: "FAIR" INDICATES FEW OR NO CLOUDS BELOW 12,000 FEET WITH NO
SIGNIFICANT WEATHER AND/OR OBSTRUCTIONS TO VISIBILITY.

...SOUTH CENTRAL NEBRASKA...

CITY           SKY/WX    TMP DP  RH WIND       PRES   REMARKS
GRAND ISLAND   PTCLDY    82  65  56 S18G29    29.81R
HASTINGS       PTCLDY    83  61  47 S16G26    29.82R
KEARNEY        MOCLDY    82  63  52 S22G29    29.81R
ORD            MOCLDY    81  58  45 SE8       29.77R
YORK           PTCLDY    81  66  61 S15       29.84R
AURORA         PTCLDY    82  64  54 S17G23    29.82R
LEXINGTON      PTCLDY    84  58  40 S17G26    29.78R
HOLDREGE       CLOUDY    82  60  46 S18G26    29.82R
HEBRON         PTCLDY    82  65  56 S10       29.87R

...NEBRASKA PANHANDLE...

CITY           SKY/WX    TMP DP  RH WIND       PRES   REMARKS
CHADRON        PTCLDY    53  38  56 NE14      29.95R
ALLIANCE       CLEAR     54  41  61 NE20G26   29.88R
SCOTTSBLUFF    LGT RAIN  57  45  64 NE15      29.90R
SIDNEY         CLEAR     59  46  62 NE14      29.87R

...WESTERN AND NORTH CENTRAL NEBRASKA...

CITY           SKY/WX    TMP DP  RH WIND       PRES   REMARKS
VALENTINE      CLOUDY    57  44  62 N9        29.91R
AINSWORTH      MOCLDY    56  51  83 N16G22    29.89R
ONEILL         CLOUDY    64  58  83 CALM      29.84R
BROKEN BOW     CLOUDY    69  55  60 N13       29.81R
IMPERIAL       CLOUDY    82  52  35 S16G26    29.76R
NORTH PLATTE   CLOUDY    67  53  61 NE24      29.80R
MCCOOK         PTCLDY    85  58  39 S22G32    29.76R

...EASTERN NEBRASKA...

CITY           SKY/WX    TMP DP  RH WIND       PRES   REMARKS
NORFOLK        MOCLDY    81  66  60 SE17      29.80R
SO SIOUX CITY  CLOUDY    82  69  64 S16G25    29.81R
TEKAMAH        PTCLDY    78  67  68 SE10      29.84R
COLUMBUS       CLEAR     82  68  62 SE16      29.82R
ALBION         MOCLDY    81  66  59 S13       29.80R
OMAHA EPPLEY   PTCLDY    83  67  58 S20       29.87R
OFFUTT AFB     PTCLDY    79  68  69 SE13      29.88R
MILLARD        PTCLDY    82  69  64 SE9       29.87R
LINCOLN        CLEAR     82  67  60 S18       29.86R
NEBRASKA CITY  CLEAR     79  69  71 S13       29.90R
BEATRICE       CLEAR     81  67  63 SE10G17   29.88R
FALLS CITY     CLEAR     78  69  73 SE8       29.91R

...NORTHERN KANSAS...

CITY           SKY/WX    TMP DP  RH WIND       PRES   REMARKS
GOODLAND       PTCLDY    79  55  43 S24G32    29.80R
HILL CITY      CLEAR     84  60  44 S17G25    29.83R
NORTON         CLEAR     82  50  32 S15       29.80R
PHILLIPSBURG   CLEAR     84  61  45 SE15G21   29.82R
SMITH CENTER   CLEAR     81  61  50 SE20G25   29.82R
HAYS           MOCLDY    82  64  54 S22G29    29.84R
RUSSELL        CLEAR     82  64  54 S21G30    29.83S
CONCORDIA      CLEAR     79  67  66 S12       29.87R
SALINA         CLEAR     83  67  58 SE13      29.88R
TOPEKA         CLEAR     78  70  76 SE7       29.92R



USA.gov is the U.S. government's official web portal to all federal, state and local government web resources and services.